Location: Perry
(41.7603°N, 81.1409°W)
Time: 04:51:41
(UTC+00:00)

Daily predictions for brighter satellites

Satellite Brightness Start Highest point End
(mag) Time Altitude Azimuth Time Altitude Azimuth Time Altitude Azimuth
OAO 2 Rocket 4.4 00:02:20 10° SW 00:06:38 30° SSE 00:07:50 26° SE
SeaSat 1 2.9 00:11:23 39° ENE 00:11:47 40° NE 00:16:23 10° NNW
Cosmos 2219 3.1 00:06:31 10° NNW 00:12:19 87° ENE 00:17:55 11° SSE
USA 305 4.3 00:09:58 10° NW 00:13:33 25° NNE 00:13:35 25° NNE
YAOGAN 1 2.6 00:11:18 10° S 00:15:36 80° WSW 00:19:57 10° NNW
USA 306 4.3 00:16:16 10° NW 00:19:37 26° NNE 00:19:37 26° NNE
S3M 3.8 00:15:21 10° S 00:21:26 81° E 00:27:36 10° N
Cosmos 2082 3.9 00:16:44 10° NNW 00:22:15 46° ENE 00:22:40 45° ENE
Cosmos 1892 2.9 00:19:47 10° NNW 00:23:40 71° W 00:26:13 20° S
SL-4 R/B 3.8 00:21:45 10° NW 00:24:00 18° N 00:24:00 18° N
CZ-2C R/B 3.4 00:19:17 10° S 00:25:05 76° WSW 00:30:49 10° NNW
Cosmos 968 Rocket 3.3 00:21:02 10° NNW 00:26:17 82° ENE 00:28:17 39° SSE
Cosmos 1315 Rocket 4.0 00:22:23 10° S 00:24:27 30° S 00:24:27 30° S
Cosmos 1346 Rocket 2.9 00:24:59 10° N 00:28:23 63° N 00:28:23 63° N
Cosmos 2369 3.6 00:25:56 10° S 00:31:33 62° ESE 00:32:24 55° ENE
CRYOSAT 2 4.3 00:27:32 10° N 00:32:25 85° W 00:37:16 10° S
Atlas Centaur 2 3.9 00:25:43 10° SW 00:33:06 34° S 00:35:21 29° SE
Meteor 2-10 Rocket 3.7 00:29:18 10° SSW 00:34:40 74° W 00:39:52 10° N
Okean-O 4.1 00:32:50 10° SSW 00:36:55 36° W 00:41:02 10° NNW
ARGOS 3.0 00:36:35 53° SE 00:37:53 77° ENE 00:43:19 10° N
Cosmos 1486 Rocket 4.1 00:33:16 10° NNW 00:38:37 75° WSW 00:41:02 33° S
NOSS 3-3 (A) 3.7 00:34:13 10° SSW 00:39:56 84° ESE 00:41:50 47° NE
NOSS 3-3 (C) 3.7 00:34:18 10° SSW 00:40:04 83° ESE 00:41:58 47° NE
Meteor 2-1 Rocket 4.3 00:37:23 10° SSW 00:42:53 74° W 00:48:25 10° N
USA 215 3.9 00:42:31 37° NE 00:43:20 38° NNE 00:49:16 10° NW
MOS 1 Rocket 3.9 00:42:46 10° N 00:47:20 57° WNW 00:52:09 10° SSW
Cosmos 1503 Rocket 4.1 00:42:52 10° NNW 00:47:17 62° N 00:47:17 62° N
Cosmos 2227 Rocket 2.6 00:43:03 10° NNW 00:48:39 62° WSW 00:51:12 32° S
CSL-04 Rocket 4.2 00:47:31 10° S 00:52:59 59° WSW 00:58:28 10° NNW
ATLAS 2AS CENTAUR R/B 3.8 00:48:08 10° NNW 00:54:13 30° NNE 00:54:13 30° NNE
Cosmos 2263 Rocket 4.1 00:52:53 10° N 00:54:45 18° NNE 00:54:45 18° NNE
GEOS 3 Rocket 3.9 00:57:17 59° SSW 00:57:57 64° SW 01:03:19 10° NW
BREEZE-M R/B 4.5 00:57:00 10° NW 01:01:53 54° NNE 01:02:10 53° NNE
Lacrosse 5 4.1 01:01:30 10° NNW 01:03:38 15° N 01:03:38 15° N
Cosmos 1697 Rocket 3.0 00:59:16 10° SW 01:04:47 61° WNW 01:06:00 50° NNW
H-2A R/B (2) 4.3 00:05:46 10° WSW 01:06:31 45° SSW 01:09:35 37° SSE
H-2A R/B 3.2 01:03:41 10° SSW 01:08:45 42° W 01:13:56 10° NNW
Cosmos 1980 Rocket 4.2 01:20:57 10° SSW 01:22:19 18° SSW 01:22:19 18° SSW
CZ-4C R/B 4.2 01:21:22 10° NNW 01:25:16 24° NNE 01:25:16 24° NNE
Cosmos 2297 Rocket 4.3 01:24:04 10° NW 01:28:26 23° W 01:32:04 13° SSW
Milstar 3 4.2 01:30:40 10° WSW 01:34:45 25° SSW 01:34:45 25° SSW
NOSS 3-2 (C) 4.2 08:44:11 47° ENE 08:44:11 47° ENE 08:48:50 10° NE
Lacrosse 4 Rocket 3.9 08:57:05 18° NE 08:57:05 18° NE 08:58:21 10° NE
CENTAUR R/B 2.7 08:57:17 67° ENE 08:57:17 67° ENE 09:03:18 10° NE
CZ-2C R/B 3.2 09:00:56 10° NNE 09:05:23 48° E 09:05:23 48° E
Cosmos 1833 Rocket 3.9 09:08:55 19° SSE 09:12:24 38° ESE 09:17:36 10° NE
PAYLOAD A 4.3 09:07:58 10° NNE 09:12:41 65° ENE 09:12:41 65° ENE
In-Cosmos 22 4.3 09:14:21 64° NE 09:14:21 64° NE 09:19:01 10° NNE
Cosmos 1269 Rocket 4.2 09:17:07 71° E 09:17:07 71° E 09:22:10 10° NNE
Lacrosse 5 rocket 3.0 09:22:56 28° E 09:22:56 28° E 09:25:06 10° ENE
Cosmos 2142 Rocket 4.3 09:19:02 10° N 09:25:16 78° W 09:31:34 10° S
Cosmos 2344 3.6 09:26:59 51° WNW 09:27:40 53° NW 09:35:28 10° NNE
USA 238 DEB 3.9 09:29:27 48° NW 09:29:27 48° NW 09:35:59 10° NNE
USA 238 3.9 09:29:32 49° NW 09:29:32 49° NW 09:36:05 10° NNE
Cosmos 2082 Rocket 3.9 09:26:41 10° SSE 09:31:29 31° ESE 09:36:20 10° NE
Meteor 1-16 Rocket 4.0 09:27:23 10° N 09:32:43 85° E 09:38:02 10° S
NOSS 3-2 (A) 4.1 09:34:08 38° NNW 09:34:08 38° NNW 09:39:38 10° NNE
Cosmos 1656 3.7 09:36:09 27° NNW 09:39:25 85° ENE 09:45:06 10° SSE
CZ-4B R/B 3.2 09:36:21 10° SE 09:39:28 32° ENE 09:42:34 10° N
ATLAS 3B R/B 3.3 09:36:34 10° SSW 09:42:53 52° ESE 09:49:17 10° NE
Cosmos 2279 Rocket 3.9 09:44:13 10° NNW 09:50:18 57° W 09:56:19 10° S
COSMOS 2406 3.0 09:48:10 37° SSW 09:50:29 80° WNW 09:56:11 10° NNE
Cosmos 292 Rocket 4.3 09:57:37 40° SW 09:57:37 40° SW 10:01:10 10° S
Cosmos 1697 Rocket 3.0 09:52:25 10° NNW 09:58:04 66° ENE 10:03:41 10° SE
ADEOS Rocket 2.8 09:54:25 10° S 09:59:46 53° W 10:05:12 10° NNW
BREEZE-M DEB (TANK) 2.3 10:04:39 44° SSE 10:04:39 44° SSE 10:06:19 10° SE
ERS-2 1.9 10:00:51 10° SSE 10:04:28 81° WSW 10:05:48 37° NNW
Cosmos 44 Rocket 3.3 10:04:23 32° NW 10:06:44 68° WSW 10:11:52 10° SSE
Cosmos 1908 3.7 10:08:35 42° SW 10:08:35 42° SW 10:11:30 10° S
SAR-Lupe-4 4.3 10:06:21 10° SSE 10:09:50 54° ENE 10:13:20 10° N
CBERS 1 LM4 rocket 4.4 10:06:12 10° N 10:11:00 54° WNW 10:14:28 18° SW
Abrixas rocket 3.5 10:11:30 24° N 10:11:34 24° NNE 10:14:00 10° ENE
FENGYUN 3A 3.6 10:06:40 10° NNE 10:12:09 89° W 10:17:35 10° SSW
Cosmos 1461 3.1 10:10:10 20° SSW 10:13:17 85° ESE 10:18:00 10° NE
TELKOM 3 3.6 10:12:57 64° SW 10:13:22 84° SSE 10:17:08 10° ENE
Cosmos 2251 Rocket 3.9 10:12:05 10° S 10:17:24 69° ESE 10:22:43 10° NNE
SL-14 R/B 3.2 10:13:34 10° S 10:17:31 89° E 10:21:34 10° N
Cosmos 1689 Rocket 3.8 10:15:21 10° SE 10:18:02 34° ENE 10:20:45 10° N
ISS -3.7 10:19:03 53° WNW 10:19:29 59° NNW 10:22:49 10° NE
Cosmos 1980 Rocket 3.0 10:14:29 10° NNW 10:19:58 52° ENE 10:25:25 10° SE
USA 290 2.5 10:19:23 10° S 10:22:33 66° ESE 10:25:47 10° NNE
DELTA 2 R/B (1) 4.4 10:24:50 24° WSW 10:27:14 34° SSW 10:32:16 10° SE
SAR-Lupe-1 4.0 10:23:52 10° SSE 10:27:25 85° ENE 10:31:01 10° NNW
Cosmos 1300 2.8 10:23:44 10° N 10:27:34 79° E 10:31:23 10° S
Cosmos 2360 4.2 10:25:54 10° NNW 10:31:38 86° WSW 10:37:19 10° SSE
ALOS 2.3 10:28:32 10° N 10:33:06 54° WNW 10:37:37 10° SSW
Lacrosse 4 Rocket 2.7 10:33:26 21° NW 10:33:26 21° NW 10:36:30 10° N
NOSS 3-2 (C) 4.4 10:31:39 21° WNW 10:34:04 28° NW 10:39:38 10° NNE
Cosmos 1726 Rocket 3.5 10:32:22 10° N 10:36:51 84° W 10:41:18 10° S
Cosmos 1484 Rocket 3.2 10:35:38 10° N 10:39:14 38° WNW 10:42:45 10° SW
Cosmos 1626 2.7 10:38:33 10° SW 10:41:55 33° WNW 10:45:19 10° N
CZ-2C R/B 3.7 10:40:02 10° NNW 10:43:34 20° WNW 10:44:45 18° W
Cosmos 2278 3.7 10:41:11 10° NNW 10:46:52 89° ENE 10:52:31 10° SSE
Aureole 3 3.8 10:43:10 10° N 10:47:18 84° E 10:52:37 10° S
CENTAUR R/B 3.7 10:44:29 17° WNW 10:48:00 26° NNW 10:53:56 10° NNE
H-2A R/B 4.2 10:44:41 10° NNE 10:48:19 42° E 10:51:59 10° S
Cosmos 2228 3.3 10:44:37 10° NNW 10:48:47 44° W 10:52:57 10° SSW
CZ-4B R/B 2.8 10:45:13 10° N 10:49:14 78° WNW 10:53:28 10° SSW
Cosmos 2322 Rocket 4.4 10:45:53 10° N 10:50:27 24° NE 10:54:57 10° ESE
Cosmos 1606 Rocket 3.9 10:47:39 10° NNW 10:51:54 44° W 10:56:09 10° SSW
ADEOS 4.1 10:47:13 10° N 10:52:00 37° WNW 10:56:45 10° SW
Cosmos 1092 Rocket 4.0 10:47:57 10° SSW 10:53:58 56° W 11:00:06 10° N
Cosmos 1833 Rocket 3.4 10:51:22 10° WSW 10:56:22 32° WNW 11:01:24 10° N
Cosmos 967 Rocket 4.5 10:50:09 10° NW 10:56:23 66° WSW 11:02:33 10° SSE
COSMO-SKYMED 1 2.6 10:52:24 10° S 10:56:42 62° W 11:01:01 10° NNW
Elektron 1 4.4 10:56:36 10° WSW 10:59:40 36° NW 11:02:22 10° NNE
Lacrosse 5 rocket 2.3 10:58:36 15° W 11:00:51 26° NNW 11:04:04 10° NNE
CZ-3 R/B 3.6 10:43:37 10° WSW 11:02:51 39° SSW 11:09:02 10° SE
Meteor 1-24 Rocket 4.0 10:57:33 10° SSW 11:02:53 46° WNW 11:08:29 10° N
Meteor 1-31 Rocket 3.7 10:59:53 10° N 11:03:17 28° WNW 11:06:40 10° SW
ATLAS CENTAUR R/B 3.8 11:01:15 10° S 11:04:32 25° ESE 11:07:43 10° ENE
Envisat 4.2 11:00:03 10° NNE 11:04:57 47° E 11:09:50 10° S
Meteor PRIRODA 3.7 11:02:29 10° N 11:06:04 52° WNW 11:09:37 10° SSW
Cosmos 407 Rocket 4.1 11:01:38 10° S 11:06:39 61° ESE 11:11:44 10° NNE
Meteor 2-10 Rocket 3.8 11:02:35 10° N 11:07:37 72° E 11:12:40 10° SSE
Cosmos 2369 4.2 11:04:41 10° NW 11:09:52 38° WSW 11:15:01 10° S
CZ-4B R/B 3.2 11:09:52 10° SW 11:11:47 14° W 11:13:43 10° WNW
Cosmos 1140 Rocket 4.3 11:09:17 10° S 11:14:18 57° ESE 11:19:20 10° NNE
Cosmos 2082 Rocket 2.7 11:10:13 10° SW 11:15:25 38° WNW 11:20:40 10° N
Okean 1-7 Rocket 3.8 11:11:36 10° SSW 11:16:00 49° W 11:20:25 10° N
PSLV R/B 3.9 11:11:56 10° NNE 11:16:05 88° W 11:20:10 10° SSW
Cosmos 1455 3.0 11:13:01 10° N 11:16:51 56° E 11:20:38 10° SSE
CZ-4B DEB 4.5 11:15:38 10° NNE 11:21:10 78° ESE 11:26:37 10° S
Cosmos 2058 Rocket 3.5 11:18:10 10° NNW 11:22:26 42° W 11:26:38 10° SSW
Meteor 2-1 Rocket 4.4 11:18:18 10° N 11:24:00 86° E 11:29:47 10° S
SL-27 R/B 3.9 11:21:46 10° S 11:25:12 44° ESE 11:28:40 10° NNE
SL-16 R/B 3.1 11:20:07 10° NNW 11:25:40 52° ENE 11:31:11 10° SE
